"Pseudo-MPEC" for P22oVWa

Created 2026 Aug 14 18:35:20 UT using Find_Orb

Click here for an explanation of pseudo-MPECs

 
 Astrometry: 
     P22oVWa 0C2026 07 19.58888923 39 27.715-16 18 57.72   ~8E1o 21.15GVNEOCPF51
     P22oVWa 0C2026 07 19.59936223 39 28.347-16 18 58.09   ~8E1o 22.21GVNEOCPF51
     P22oVWa 0C2026 07 19.60978923 39 28.986-16 18 58.25   ~8E1o 22.57GVNEOCPF51
     P22oVWa 0C2026 07 26.54268123 46 11.893-16 27 23.01   ~8E1o 22.41GVNEOCPF52
     P22oVWa 0C2026 07 26.57736023 46 13.559-16 27 26.84   ~8E1o 21.75GVNEOCPF52
     P22oVWa*0C2026 08 07.47819323 54 05.380-16 57 05.13   ~87D5 21.52wXNEOCPF52
     P22oVWa 0C2026 08 07.48974923 54 05.664-16 57 07.41   ~87D5 21.56wXNEOCPF52
     P22oVWa 0C2026 08 07.50132423 54 05.945-16 57 09.30   ~87D5 21.35wXNEOCPF52
     P22oVWa 0C2026 08 07.51299423 54 06.195-16 57 11.91   ~87D5 22.06wXNEOCPF52
     P22oVWa 0C2026 08 07.57246723 54 07.536-16 57 23.36   ~87HZ 21.67GVNEOCPF51
     P22oVWa 0C2026 08 07.57328723 54 07.555-16 57 23.66   ~87HZ 21.77GVNEOCPF51
     P22oVWa 0C2026 08 09.48293123 54 55.132-17 03 37.59   ~89G5 21.78wXNEOCPF51
     P22oVWa 0C2026 08 09.49427523 54 55.327-17 03 40.17   ~89G5 21.63wXNEOCPF51
     P22oVWa 0C2026 08 09.50560523 54 55.523-17 03 42.31   ~89G5 21.46wXNEOCPF51
     P22oVWa 0C2026 08 09.51694923 54 55.766-17 03 44.61   ~89G5 21.80wXNEOCPF51

Station data:
(F51) Pan-STARRS 1, Haleakala  (N20.707234 W156.255910)  US/Hawaii.
   Observers J. Herman, T. Lowe, P. Minguez, A. Schultz, I. Smith. Measurers
   K. Chambers, T. de Boer, J. Fairlamb, H. Gao, M. Huber, C.-C. Lin, E.
   Magnier, Y. Ramanjooloo, R. Wainscoat, R. Weryk. 1.8-m Ritchey-Chrétien +
   CCD.
(F52) Pan-STARRS 2, Haleakala  (N20.707382 W156.255910)  US/Hawaii.
   Observers J. Herman, T. Lowe, P. Minguez, A. Schultz, I. Smith. Measurers
   K. Chambers, T. de Boer, J. Fairlamb, H. Gao, M. Huber, C.-C. Lin, E.
   Magnier, Y. Ramanjooloo, R. Wainscoat, R. Weryk. 1.8-m Ritchey-Chrétien +
   CCD.

Orbital elements:  P22oVWa
   Perihelion 2026 Aug 19.380772 +/- 0.131 TT =  9:08:18.7 (JD 2461271.880772)
Epoch 2026 Aug  9.0 TT = JDT 2461261.5   Earth MOID: 0.7539      AutoNEOCP
M 358.101875812 +/- 0.027           (J2000 ecliptic)
n   0.182849994 +/- 0.000349        Peri.  272.853708 +/- 0.09
a   3.074251647 +/- 0.00391         Node    64.344386 +/- 0.032
e   0.43228970 +/- 0.000594         Incl.    7.147610 +/- 0.0019
P   5.39025                H 19.82  G  0.15   U  7.4
q 1.745284307 +/- 0.000397    Q 4.403218986 +/- 0.00743
From 15 observations 2026 July 19-Aug. 9; mean residual 0".15
Residuals in arcseconds: 
260719 F51  .02-  .17-    260807 F52  .21-  .14-    260807 F51  .07-  .25-    
260719 F51  .05-  .10-    260807 F52  .03+  .13-    260809 F51  .16+  .16+    
260719 F51  .06+  .17+    260807 F52  .24+  .26+    260809 F51  .07-  .07-    
260726 F52  .06-  .18+    260807 F52  .00   .07-    260809 F51  .25-  .13+    
260726 F52  .09+  .00     260807 F51  .08-  .10-    260809 F51  .26+  .16+    

Ephemerides (geocentric):
Date (UTC) HH   RA             Dec           delta  r     elong  mag " sig PA
---- --------  ------------   ------------  ------ ------ -----  --- --------
2026 08 14 19  23 56 23.535   -17 22 13.73  .81078 1.7457 146.2 21.5 .425  45
2026 08 14 20  23 56 23.985   -17 22 22.86  .81062 1.7457 146.2 21.5 .429  45
2026 08 14 21  23 56 24.430   -17 22 32.00  .81046 1.7457 146.2 21.5 .433  45
2026 08 14 22  23 56 24.873   -17 22 41.14  .81030 1.7457 146.3 21.5 .437  45
2026 08 14 23  23 56 25.311   -17 22 50.28  .81014 1.7457 146.3 21.5 .441  45
2026 08 15 00  23 56 25.745   -17 22 59.42  .80998 1.7457 146.3 21.5 .445  45
2026 08 15 01  23 56 26.176   -17 23 08.57  .80982 1.7457 146.4 21.5 .449  46
2026 08 15 02  23 56 26.603   -17 23 17.72  .80966 1.7457 146.4 21.5 .453  46
2026 08 15 03  23 56 27.026   -17 23 26.88  .80950 1.7457 146.4 21.5 .457  46
2026 08 15 04  23 56 27.445   -17 23 36.04  .80934 1.7457 146.5 21.5 .461  46
2026 08 15 05  23 56 27.860   -17 23 45.20  .80918 1.7457 146.5 21.5 .465  46
2026 08 15 06  23 56 28.272   -17 23 54.36  .80902 1.7456 146.5 21.5 .469  46
2026 08 15 07  23 56 28.680   -17 24 03.53  .80886 1.7456 146.6 21.5 .473  46
2026 08 15 08  23 56 29.084   -17 24 12.69  .80870 1.7456 146.6 21.5 .477  46
2026 08 15 09  23 56 29.484   -17 24 21.87  .80855 1.7456 146.6 21.5 .481  46
2026 08 15 10  23 56 29.881   -17 24 31.04  .80839 1.7456 146.7 21.5 .485  46
2026 08 15 11  23 56 30.274   -17 24 40.22  .80823 1.7456 146.7 21.5 .489  46
2026 08 15 12  23 56 30.663   -17 24 49.39  .80807 1.7456 146.7 21.5 .493  46
2026 08 15 13  23 56 31.048   -17 24 58.58  .80792 1.7456 146.8 21.5 .497  46
2026 08 15 14  23 56 31.429   -17 25 07.76  .80776 1.7456 146.8 21.5 .502  46
2026 08 15 15  23 56 31.807   -17 25 16.95  .80760 1.7456 146.8 21.5 .506  46
2026 08 15 16  23 56 32.180   -17 25 26.14  .80745 1.7456 146.9 21.5 .510  46
2026 08 15 17  23 56 32.550   -17 25 35.33  .80729 1.7456 146.9 21.5 .514  46
2026 08 15 18  23 56 32.917   -17 25 44.52  .80713 1.7456 146.9 21.5 .518  46
2026 08 15 19  23 56 33.279   -17 25 53.72  .80698 1.7456 147.0 21.5 .523  47
2026 08 15 20  23 56 33.638   -17 26 02.91  .80682 1.7455 147.0 21.5 .527  47
2026 08 15 21  23 56 33.993   -17 26 12.11  .80667 1.7455 147.0 21.5 .531  47
2026 08 15 22  23 56 34.344   -17 26 21.32  .80651 1.7455 147.1 21.5 .535  47
2026 08 15 23  23 56 34.691   -17 26 30.52  .80636 1.7455 147.1 21.5 .540  47
2026 08 16 00  23 56 35.035   -17 26 39.73  .80621 1.7455 147.1 21.5 .544  47
2026 08 16 01  23 56 35.375   -17 26 48.94  .80605 1.7455 147.2 21.5 .548  47
2026 08 16 02  23 56 35.711   -17 26 58.15  .80590 1.7455 147.2 21.5 .553  47
2026 08 16 03  23 56 36.043   -17 27 07.36  .80574 1.7455 147.2 21.5 .557  47
2026 08 16 04  23 56 36.372   -17 27 16.57  .80559 1.7455 147.3 21.5 .562  47
2026 08 16 05  23 56 36.697   -17 27 25.79  .80544 1.7455 147.3 21.5 .566  47
2026 08 16 06  23 56 37.018   -17 27 35.01  .80529 1.7455 147.3 21.5 .570  47
2026 08 16 07  23 56 37.335   -17 27 44.23  .80513 1.7455 147.4 21.5 .575  47
2026 08 16 08  23 56 37.648   -17 27 53.45  .80498 1.7455 147.4 21.5 .579  47
2026 08 16 09  23 56 37.958   -17 28 02.67  .80483 1.7455 147.4 21.5 .584  47
2026 08 16 10  23 56 38.264   -17 28 11.89  .80468 1.7455 147.5 21.5 .588  47
2026 08 16 11  23 56 38.566   -17 28 21.12  .80453 1.7455 147.5 21.5 .593  47
2026 08 16 12  23 56 38.865   -17 28 30.35  .80438 1.7455 147.5 21.5 .597  47
2026 08 16 13  23 56 39.160   -17 28 39.58  .80423 1.7455 147.6 21.5 .602  47
2026 08 16 14  23 56 39.451   -17 28 48.81  .80407 1.7454 147.6 21.5 .607  48
2026 08 16 15  23 56 39.738   -17 28 58.04  .80392 1.7454 147.6 21.5 .611  48
2026 08 16 16  23 56 40.021   -17 29 07.27  .80377 1.7454 147.7 21.5 .616  48
2026 08 16 17  23 56 40.301   -17 29 16.50  .80363 1.7454 147.7 21.5 .620  48
2026 08 16 18  23 56 40.577   -17 29 25.74  .80348 1.7454 147.7 21.5 .625  48